| time (UTC) | temp C | wind direction | speed KPH | gust KPH | rain 1hr cm | rain 24hr cm | rain mn cm | humidity % | barometer mb |
| 20260508043019 | 5 | 287 | 1.6 | 16.1 | 0.00 | 0.00 | 0.00 | 62 | 1017.2 |
| 20260508041515 | 5 | 265 | 3.2 | 20.9 | 0.00 | 0.00 | 0.00 | 60 | 1017.1 |
| 20260508040010 | 5 | 255 | 3.2 | 19.3 | 0.00 | 0.00 | 0.00 | 59 | 1017.1 |
| 20260508034511 | 5 | 236 | 4.8 | 16.1 | 0.00 | 0.00 | 0.00 | 60 | 1017.1 |
| 20260508033010 | 5 | 264 | 0.0 | 12.9 | 0.00 | 0.00 | 0.00 | 59 | 1017.0 |
| 20260508031509 | 5 | 242 | 3.2 | 16.1 | 0.00 | 0.00 | 0.00 | 58 | 1017.2 |
| 20260508030009 | 5 | 250 | 4.8 | 22.5 | 0.00 | 0.00 | 0.00 | 58 | 1017.4 |
| 20260508024508 | 5 | 277 | 6.4 | 25.7 | 0.00 | 0.00 | 0.00 | 58 | 1017.3 |
| 20260508023009 | 5 | 252 | 4.8 | 22.5 | 0.00 | 0.00 | 0.00 | 57 | 1017.3 |
| 20260508021508 | 5 | 277 | 0.0 | 16.1 | 0.00 | 0.00 | 0.00 | 57 | 1017.2 |
| 20260508020011 | 5 | 250 | 0.0 | 17.7 | 0.00 | 0.00 | 0.00 | 56 | 1017.1 |
| 20260508014510 | 5 | 250 | 1.6 | 11.3 | 0.00 | 0.00 | 0.00 | 56 | 1017.0 |
| 20260508013009 | 5 | 270 | 6.4 | 24.1 | 0.00 | 0.00 | 0.00 | 55 | 1016.7 |
| 20260508011506 | 5 | 253 | 4.8 | 22.5 | 0.00 | 0.00 | 0.00 | 55 | 1016.5 |
| 20260508010005 | 6 | 275 | 3.2 | 27.4 | 0.00 | 0.00 | 0.00 | 53 | 1016.5 |
| 20260508004509 | 6 | 252 | 8.0 | 27.4 | 0.00 | 0.00 | 0.00 | 53 | 1016.4 |
| 20260508003004 | 6 | 246 | 6.4 | 19.3 | 0.00 | 0.00 | 0.00 | 51 | 1016.5 |
| 20260508001502 | 7 | 260 | 4.8 | 17.7 | 0.00 | 0.00 | 0.00 | 50 | 1016.5 |
| 20260508000002 | 6 | 290 | 0.0 | 9.7 | 0.00 | 0.00 | 0.00 | 54 | 1016.6 |
| 20260507234501 | 7 | 248 | 4.8 | 22.5 | 0.00 | 0.00 | 0.00 | 50 | 1016.9 |
| 20260507233100 | 7 | 244 | 8.0 | 17.7 | 0.00 | 0.00 | 0.00 | 49 | 1016.8 |
| 20260507231559 | 6 | 247 | 1.6 | 8.0 | 0.00 | 0.00 | 0.00 | 56 | 1017.4 |
| 20260507230057 | 6 | 245 | 1.6 | 16.1 | 0.00 | 0.00 | 0.00 | 57 | 1017.7 |
| 20260507224559 | 6 | 237 | 0.0 | 8.0 | 0.00 | 0.00 | 0.00 | 60 | 1017.8 |
| 20260507223057 | 6 | 237 | 1.6 | 19.3 | 0.00 | 0.00 | 0.00 | 60 | 1018.0 |
| 20260507221553 | 7 | 255 | 3.2 | 17.7 | 0.00 | 0.00 | 0.00 | 54 | 1017.9 |
| 20260507220051 | 6 | 246 | 3.2 | 16.1 | 0.00 | 0.00 | 0.00 | 58 | 1018.3 |
| 20260507214550 | 6 | 255 | 4.8 | 17.7 | 0.00 | 0.03 | 0.00 | 59 | 1018.7 |
| 20260507213049 | 6 | 254 | 6.4 | 17.7 | 0.00 | 0.03 | 0.00 | 57 | 1019.1 |
| 20260507211546 | 7 | 255 | 1.6 | 19.3 | 0.00 | 0.03 | 0.00 | 57 | 1019.3 |
| 20260507210046 | 7 | 263 | 8.0 | 29.0 | 0.00 | 0.03 | 0.00 | 51 | 1019.5 |
| 20260507204547 | 7 | 269 | 8.0 | 22.5 | 0.00 | 0.05 | 0.00 | 52 | 1019.5 |
| 20260507203044 | 7 | 258 | 6.4 | 19.3 | 0.00 | 0.05 | 0.00 | 52 | 1019.6 |
| 20260507201539 | 7 | 259 | 6.4 | 22.5 | 0.00 | 0.05 | 0.00 | 52 | 1019.7 |
| 20260507200035 | 7 | 257 | 3.2 | 16.1 | 0.00 | 0.05 | 0.00 | 56 | 1020.1 |
| 20260507194533 | 6 | 238 | 6.4 | 17.7 | 0.00 | 0.13 | 0.00 | 56 | 1020.4 |
| 20260507193030 | 6 | 241 | 6.4 | 22.5 | 0.00 | 0.13 | 0.00 | 56 | 1020.5 |
| 20260507191527 | 5 | 257 | 9.7 | 22.5 | 0.00 | 0.13 | 0.00 | 56 | 1020.9 |
| 20260507190025 | 6 | 261 | 3.2 | 16.1 | 0.00 | 0.13 | 0.00 | 58 | 1021.1 |
| 20260507184521 | 5 | 254 | 3.2 | 17.7 | 0.00 | 0.23 | 0.00 | 58 | 1021.1 |
| 20260507183019 | 5 | 271 | 6.4 | 24.1 | 0.00 | 0.23 | 0.00 | 56 | 1021.4 |
| 20260507181517 | 5 | 248 | 6.4 | 17.7 | 0.00 | 0.23 | 0.00 | 60 | 1021.5 |
| 20260507180017 | 5 | 252 | 4.8 | 22.5 | 0.00 | 0.23 | 0.00 | 60 | 1021.6 |
| 20260507174516 | 3 | 250 | 9.7 | 22.5 | 0.00 | 0.30 | 0.00 | 63 | 1021.7 |
| 20260507173026 | 4 | 256 | 3.2 | 17.7 | 0.00 | 0.30 | 0.00 | 62 | 1021.8 |
| 20260507171513 | 4 | 223 | 4.8 | 20.9 | 0.00 | 0.30 | 0.00 | 63 | 1022.1 |
| 20260507170010 | 4 | 261 | 6.4 | 19.3 | 0.00 | 0.30 | 0.00 | 62 | 1022.4 |
| 20260507164508 | 4 | 259 | 1.6 | 17.7 | 0.00 | 0.43 | 0.00 | 62 | 1022.6 |
| 20260507163005 | 3 | 286 | 3.2 | 16.1 | 0.00 | 0.43 | 0.00 | 64 | 1022.8 |
| 20260507161509 | 3 | 242 | 1.6 | 14.5 | 0.00 | 0.43 | 0.00 | 66 | 1022.9 |
| 20260507160100 | 2 | 260 | 1.6 | 9.7 | 0.00 | 0.43 | 0.00 | 65 | 1023.4 |
| 20260507154556 | 2 | 139 | 1.6 | 19.3 | 0.00 | 0.56 | 0.00 | 69 | 1023.8 |
| 20260507153051 | 1 | 301 | 0.0 | 0.0 | 0.00 | 0.56 | 0.00 | 70 | 1024.3 |
| 20260507151547 | 0 | 301 | 0.0 | 0.0 | 0.00 | 0.56 | 0.00 | 71 | 1024.8 |
| 20260507150045 | 0 | 301 | 0.0 | 0.0 | 0.00 | 0.56 | 0.00 | 73 | 1025.1 |
| 20260507144608 | -1 | 301 | 0.0 | 0.0 | 0.00 | 0.66 | 0.00 | 74 | 1025.1 |
| 20260507143042 | -1 | 301 | 0.0 | 0.0 | 0.00 | 0.66 | 0.00 | 73 | 1025.0 |
| 20260507141540 | -1 | 301 | 0.0 | 0.0 | 0.00 | 0.66 | 0.00 | 72 | 1025.3 |
| 20260507140033 | -3 | 301 | 0.0 | 0.0 | 0.00 | 0.66 | 0.00 | 82 | 1025.3 |
| 20260507134530 | -5 | 301 | 0.0 | 0.0 | 0.00 | 0.76 | 0.00 | 82 | 1025.2 |
| 20260507133026 | -6 | 301 | 0.0 | 0.0 | 0.00 | 0.76 | 0.00 | 80 | 1025.2 |
| 20260507131522 | -7 | 301 | 0.0 | 0.0 | 0.00 | 0.76 | 0.00 | 81 | 1025.3 |
| 20260507130020 | -7 | 301 | 0.0 | 0.0 | 0.00 | 0.76 | 0.00 | 83 | 1025.0 |
| 20260507124522 | -7 | 301 | 0.0 | 0.0 | 0.00 | 0.81 | 0.00 | 83 | 1024.8 |
| 20260507123019 | -8 | 301 | 0.0 | 0.0 | 0.00 | 0.81 | 0.00 | 84 | 1024.5 |
| 20260507121517 | -8 | 301 | 0.0 | 0.0 | 0.00 | 0.81 | 0.00 | 83 | 1024.5 |
| 20260507120016 | -8 | 301 | 0.0 | 0.0 | 0.00 | 0.81 | 0.00 | 84 | 1024.3 |
| 20260507114515 | -8 | 301 | 0.0 | 0.0 | 0.00 | 0.86 | 0.00 | 83 | 1024.2 |
| 20260507113014 | -8 | 301 | 0.0 | 0.0 | 0.00 | 0.86 | 0.00 | 82 | 1023.9 |
| 20260507111517 | -7 | 301 | 0.0 | 0.0 | 0.00 | 0.86 | 0.00 | 82 | 1023.6 |
| 20260507110010 | -7 | 301 | 0.0 | 0.0 | 0.00 | 0.86 | 0.00 | 82 | 1023.4 |
| 20260507104510 | -7 | 301 | 0.0 | 0.0 | 0.00 | 0.89 | 0.00 | 82 | 1023.4 |
| 20260507103008 | -7 | 301 | 0.0 | 0.0 | 0.00 | 0.89 | 0.00 | 82 | 1023.4 |
| 20260507101507 | -7 | 301 | 0.0 | 0.0 | 0.00 | 0.89 | 0.00 | 82 | 1023.4 |
| 20260507100006 | -7 | 301 | 0.0 | 0.0 | 0.00 | 0.89 | 0.00 | 81 | 1023.5 |
| 20260507094505 | -7 | 301 | 0.0 | 0.0 | 0.00 | 0.89 | 0.00 | 81 | 1023.3 |
| 20260507093005 | -7 | 301 | 0.0 | 0.0 | 0.00 | 0.89 | 0.00 | 81 | 1023.0 |
| 20260507091503 | -8 | 235 | 0.0 | 0.0 | 0.00 | 0.89 | 0.00 | 82 | 1022.8 |
| 20260507090007 | -9 | 290 | 0.0 | 0.0 | 0.00 | 0.89 | 0.00 | 84 | 1022.3 |
| 20260507084601 | -8 | 274 | 0.0 | 0.0 | 0.00 | 0.91 | 0.00 | 85 | 1022.2 |
| 20260507083100 | -8 | 273 | 0.0 | 0.0 | 0.00 | 0.91 | 0.00 | 85 | 1021.9 |
| 20260507081558 | -8 | 273 | 0.0 | 0.0 | 0.00 | 0.91 | 0.00 | 85 | 1021.5 |
| 20260507080056 | -8 | 279 | 0.0 | 0.0 | 0.00 | 0.91 | 0.00 | 85 | 1021.1 |
| 20260507074552 | -17 | 0.0 | 0.0 | 0.00 | 0.97 | 0.00 | 1021.4 | ||
| 20260507073049 | -17 | 0.0 | 0.0 | 0.00 | 0.97 | 0.00 | 1021.7 | ||
| 20260507071542 | -17 | 0.0 | 0.0 | 0.00 | 0.97 | 0.00 | 1022.1 | ||
| 20260507070039 | -17 | 0.0 | 0.0 | 0.00 | 0.97 | 0.00 | 1022.7 | ||
| 20260507064535 | -7 | 301 | 0.0 | 0.0 | 0.00 | 1.09 | 0.00 | 81 | 1023.3 |
| 20260507063042 | -7 | 301 | 0.0 | 0.0 | 0.00 | 1.09 | 0.00 | 81 | 1023.1 |
| 20260507061532 | -7 | 301 | 0.0 | 0.0 | 0.00 | 1.09 | 0.00 | 81 | 1023.0 |
| 20260507060046 | -7 | 301 | 0.0 | 0.0 | 0.00 | 1.09 | 0.00 | 81 | 1022.6 |
| 20260507054528 | -7 | 301 | 0.0 | 0.0 | 0.00 | 1.14 | 1.09 | 80 | 1022.1 |
| 20260507053023 | -7 | 301 | 0.0 | 0.0 | 0.00 | 1.14 | 1.09 | 80 | 1021.7 |
| 20260507051520 | -6 | 301 | 0.0 | 0.0 | 0.00 | 1.14 | 1.09 | 79 | 1021.2 |
| 20260507050019 | -6 | 301 | 0.0 | 0.0 | 0.00 | 1.14 | 1.09 | 1020.6 | |
| 20260507044530 | -17 | 0.0 | 0.0 | 0.00 | 1.19 | 1.09 | 1021.0 |